Regional Weather Roundup
Issued by NWS Sterling, VA

Home | Current Version | Previous Version | Graphics & Text | Print | Product List | Glossary On
Versions: 1 2 3 4 5 6 7 8 9 10 11 12 13 14 15 16 17 18 19 20 21 22 23 24 25 26 27 28 29 30 31 32 33 34 35 36 37 38 39 40 41 42 43 44 45 46 47 48 49 50
773
ASUS41 KLWX 110010
RWRLWX

REGIONAL WEATHER ROUNDUP
NATIONAL WEATHER SERVICE BALTIMORE MD/WASHINGTON DC
700 PM EST WED FEB 10 2016

Note: "FAIR" indicates few or no clouds below 12,000 feet
with no significant weather and/or obstructions to visibility.
 TC=TEMPERATURE CELSIUS

 * =Non NWS site. Station does not report precipitation (e.g. rain,
    snow, etc.), thunder, or fog.

DCZ001-MDZ009-015-VAZ040>042-051-053>054-110100-
WASHINGTON METRO

CITY           SKY/WX    TMP DP  RH WIND       PRES   REMARKS
WASHINGTON NAT CLOUDY    29  10  45 W15G25    29.90R WCI  18
DULLES         CLOUDY    26   9  48 NW16G30   29.90R WCI  14
ANDREWS AFB    CLOUDY    28  10  46 NW20      29.87R WCI  15
FT BELVOIR     CLOUDY    28  11  48 NW16G30   29.90R WCI  17
QUANTICO       CLOUDY    29  17  61 NW15G28   29.93R WCI  18
COLLEGE PARK*  CLOUDY    30  12  47 W12G23    29.89R WCI  21
LEESBURG*      CLOUDY    28  18  64 NW16G25   29.91R WCI  17
GAITHERSBURG*  CLOUDY    25   9  50 NW18G26   29.90R WCI  11

$$

MDZ006>007-011-014-110100-
BALTIMORE METRO

CITY           SKY/WX    TMP DP  RH WIND       PRES   REMARKS
BWI AIRPORT    MOCLDY    29  11  47 W18G30    29.85R WCI  16
MD SCIENCE CTR   N/A     30   9  41 MISG      29.85R
MARTIN STATE   PTCLDY    32  16  51 W15       29.87R WCI  22
ANNAPOLIS      CLOUDY    32  14  47 W8        29.86R WCI  25
FORT MEADE*    CLOUDY    30  12  47 W14G23    29.89R WCI  20

$$

MDZ012-015-019>023-110100-
MARYLAND EASTERN SHORE

CITY           SKY/WX    TMP DP  RH WIND       PRES   REMARKS
OCEAN CITY     CLEAR     31  22  69 CALM      29.83R
SALISBURY      CLOUDY    33  22  63 NW5       29.82R
BAY BRIDGE AP*   N/A     32  12  43 NW18G24   29.85R WCI  20
CAMBRIDGE*     CLOUDY    34  19  55 NW8       29.83R WCI  27
EASTON*        PTCLDY    32  18  55 NW12      29.87R WCI  23

$$

MDZ017>025-110100-
SOUTHERN MARYLAND

CITY           SKY/WX    TMP DP  RH WIND       PRES   REMARKS
PATUXENT RIVER FLURRIES  36  18  48 NW14G22   29.84R WCI  27
ST INIGOES     CLOUDY    37  21  52 W9        29.83R
LEONARDTOWN*   CLOUDY    32  23  69 NW15G23   29.87R WCI  22

$$

MDZ003>005-110100-
NORTH CENTRAL MARYLAND

CITY           SKY/WX    TMP DP  RH WIND       PRES   REMARKS
FREDERICK*     CLOUDY    25  18  74 W14G21    29.92R WCI  13
HAGERSTOWN APT CLOUDY    23  11  60 W15       29.87R WCI  10
WESTMINSTER*   CLOUDY    25  18  74 W14G21    29.83R WCI  13

$$

MDZ501>502-110100-
WESTERN MARYLAND

CITY           SKY/WX    TMP DP  RH WIND       PRES   REMARKS
OAKLAND*       CLOUDY    10   7  85 W7G22     29.73S FOG
CUMBERLAND*    PTCLDY    25  10  54 W12G18    29.94R WCI  14

$$

VAZ025>031-110100-
SHENANDOAH VALLEY

CITY           SKY/WX    TMP DP  RH WIND       PRES   REMARKS
WINCHESTER*    CLOUDY    25  12  58 W13       29.89R WCI  13
FRONT ROYAL*   CLOUDY    25   9  50 W7        29.89R
LURAY*         FAIR      23   7  50 W10G17    29.89R WCI  12
NEW MARKET*    CLOUDY    23   5  45 W5        29.88S
STAUNTON*      FAIR      26   6  42 NW9       29.91R WCI  17
WAYNESBORO*    FAIR      21   0  39 W6        29.87R

$$

WVZ021-048>050-054>055-110100-
EASTERN WEST VIRGINIA PANHANDLE

CITY           SKY/WX    TMP DP  RH WIND       PRES   REMARKS
MARTINSBURG    CLOUDY    22  12  65 W13       29.89R WCI  10
PETERSBURG*    CLOUDY    22   7  51 CALM      29.92S

$$

VAZ036>039-050-110100-
CENTRAL FOOTHILLS

CITY           SKY/WX    TMP DP  RH WIND       PRES   REMARKS
CHARLOTTESVILL FAIR      27   4  37 NW9       29.90R WCI  18
CULPEPER*      CLOUDY    27   9  47 NW7G16    29.93R
ORANGE*        CLOUDY    28  10  47 W10G16    29.93R WCI  19
GORDONSVILLE*  CLOUDY    28   6  39 NW6G18    29.90R
WARRENTON*     CLOUDY    28  15  58 W15G21    29.91R WCI  17

$$

VAZ055>057-110100-
NORTH AND CENTRAL PIEDMONT

CITY           SKY/WX    TMP DP  RH WIND       PRES   REMARKS
FREDERICKSBRG* CLOUDY    30  17  56 NW15G21   29.90R WCI  19
STAFFORD*      CLOUDY    26  20  79 NW12      29.95R WCI  16

$$

NCZ024-NYZ072-PAZ021-071-VAZ022-071-110100-
OTHER REGIONAL OBSERVATIONS

CITY           SKY/WX    TMP DP  RH WIND       PRES   REMARKS
NEW YORK CITY  MOCLDY    34  16  47 W9G17     29.74R WCI  27
PHILADELPHIA   CLOUDY    33  15  47 W20       29.82R WCI  21
PITTSBURGH     LGT SNOW  18  11  74 W10G22    29.86R WCI   6
ROANOKE        MOCLDY    22   4  46 NW17G26   29.97R WCI   8
RICHMOND       CLOUDY    33  10  38 W20G26    29.89R WCI  21
RALEIGH        PTCLDY    32   8  36 NW9G17    29.96R WCI  24

$$

ANZ530>537-110100-
MARINE OBSERVATIONS

STATION/POSITION TIME  TEMP    WIND        PRES
                       AIR SEA DIR/SP/G
                 (UTC) (F)     (DEG/KT/KT) (MB)
THOMAS PT LIGHT  NOT AVBL
BALT KEY BRIDGE  2300   32                 1009.9
COVE POINT       2300   36                 1010.2
LEWISETTA        2300   38 41              1009.5
SOLOMONS ISLAND  2300   37 41                N/A
PINEY POINT      2300          320/  6/  7   N/A

$$





USA.gov is the U.S. government's official web portal to all federal, state and local government web resources and services.